Year,Month,Day,Hour,Minute,Value (Times are PST for temperature in C)
2008,08,17,00,00,22.80
2008,08,17,00,01,22.70
2008,08,17,00,02,22.70
2008,08,17,00,03,22.70
2008,08,17,00,04,22.60
2008,08,17,00,05,22.60
2008,08,17,00,06,22.60
2008,08,17,00,07,22.60
2008,08,17,00,08,22.60
2008,08,17,00,09,22.60
2008,08,17,00,10,22.60
2008,08,17,00,11,22.60
2008,08,17,00,12,22.50
2008,08,17,01,02,21.00
2008,08,17,01,03,20.90
2008,08,17,01,04,20.90
2008,08,17,01,05,20.90
2008,08,17,01,06,20.80
2008,08,17,01,07,20.80
2008,08,17,01,08,20.80
2008,08,17,01,09,20.80
2008,08,17,01,10,20.70
2008,08,17,01,11,20.70
2008,08,17,01,12,20.70
2008,08,17,01,13,20.60
2008,08,17,01,14,20.60
2008,08,17,01,15,20.60
2008,08,17,01,16,20.50
2008,08,17,01,17,20.50
2008,08,17,01,18,20.50
2008,08,17,01,19,20.40
2008,08,17,01,20,20.40
2008,08,17,01,21,20.30
2008,08,17,01,22,20.30
2008,08,17,01,23,20.30
2008,08,17,01,24,20.20
2008,08,17,01,25,20.20
2008,08,17,01,26,20.20
2008,08,17,01,27,20.20
2008,08,17,01,28,20.10
2008,08,17,01,29,20.10
2008,08,17,01,30,20.00
2008,08,17,01,31,19.90
2008,08,17,01,32,19.90
2008,08,17,01,33,19.90
2008,08,17,01,34,19.80
2008,08,17,01,35,19.80
2008,08,17,01,36,19.80
2008,08,17,01,37,19.70
2008,08,17,01,38,19.70
2008,08,17,01,39,19.70
2008,08,17,01,40,19.60
2008,08,17,01,41,19.60
2008,08,17,01,42,19.60
2008,08,17,01,43,19.50
2008,08,17,01,44,19.50
2008,08,17,01,45,19.50
2008,08,17,01,46,19.40
2008,08,17,01,47,19.40
2008,08,17,01,48,19.40
2008,08,17,01,49,19.40
2008,08,17,01,50,19.30
2008,08,17,01,51,19.30
2008,08,17,01,52,19.20
2008,08,17,01,53,19.20
2008,08,17,01,54,19.20
2008,08,17,01,55,19.20
2008,08,17,01,56,19.10
2008,08,17,01,57,19.10
2008,08,17,01,58,19.10
2008,08,17,01,59,19.10
2008,08,17,02,00,19.10
2008,08,17,02,01,19.00
2008,08,17,02,02,18.90
2008,08,17,02,03,18.90
2008,08,17,02,04,18.90
2008,08,17,02,05,18.90
2008,08,17,02,06,18.90
2008,08,17,02,07,18.90
2008,08,17,02,08,18.80
2008,08,17,02,09,18.80
2008,08,17,02,10,18.80
2008,08,17,02,11,18.70
2008,08,17,02,12,18.70
2008,08,17,02,13,18.70
2008,08,17,02,14,18.60
2008,08,17,02,15,18.60
2008,08,17,02,16,18.60
2008,08,17,02,17,18.50
2008,08,17,02,18,18.50
2008,08,17,02,19,18.50
2008,08,17,02,20,18.50
2008,08,17,02,21,18.40
2008,08,17,02,22,18.40
2008,08,17,02,23,18.30
2008,08,17,02,24,18.30
2008,08,17,02,25,18.30
2008,08,17,02,26,18.20
2008,08,17,02,27,18.20
2008,08,17,02,28,18.20
2008,08,17,02,29,18.20
2008,08,17,02,30,18.20
2008,08,17,02,31,18.10
2008,08,17,02,32,18.10
2008,08,17,02,33,18.10
2008,08,17,02,34,18.10
2008,08,17,02,35,18.00
2008,08,17,02,36,17.90
2008,08,17,02,37,17.90
2008,08,17,02,38,17.90
2008,08,17,02,39,17.90
2008,08,17,02,40,17.90
2008,08,17,02,41,17.90
2008,08,17,02,42,17.90
2008,08,17,02,43,17.90
2008,08,17,02,44,17.80
2008,08,17,02,45,17.80
2008,08,17,02,46,17.80
2008,08,17,02,47,17.80
2008,08,17,02,48,17.80
2008,08,17,02,49,17.80
2008,08,17,02,50,17.70
2008,08,17,02,51,17.70
2008,08,17,02,52,17.70
2008,08,17,02,53,17.70
2008,08,17,02,54,17.70
2008,08,17,02,55,17.70
2008,08,17,02,56,17.70
2008,08,17,02,57,17.60
2008,08,17,02,58,17.60
2008,08,17,02,59,17.60
2008,08,17,03,00,17.60
2008,08,17,03,01,17.60
2008,08,17,03,02,17.60
2008,08,17,03,03,17.50
2008,08,17,03,04,17.50
2008,08,17,03,05,17.50
2008,08,17,03,06,17.50
2008,08,17,03,07,17.50
2008,08,17,03,08,17.40
2008,08,17,03,09,17.40
2008,08,17,03,10,17.40
2008,08,17,03,11,17.40
2008,08,17,03,12,17.40
2008,08,17,03,13,17.30
2008,08,17,03,14,17.30
2008,08,17,03,15,17.30
2008,08,17,03,16,17.30
2008,08,17,03,17,17.30
2008,08,17,03,18,17.30
2008,08,17,03,19,17.30
2008,08,17,03,20,17.30
2008,08,17,03,21,17.30
2008,08,17,03,22,17.30
2008,08,17,03,23,17.30
2008,08,17,03,24,17.30
2008,08,17,03,25,17.30
2008,08,17,03,26,17.30
2008,08,17,03,27,17.30
2008,08,17,03,28,17.20
2008,08,17,03,29,17.20
2008,08,17,03,30,17.20
2008,08,17,03,31,17.20
2008,08,17,03,32,17.20
2008,08,17,03,33,17.20
2008,08,17,03,34,17.10
2008,08,17,03,35,17.10
2008,08,17,03,36,17.10
2008,08,17,03,37,17.00
2008,08,17,03,38,17.00
2008,08,17,03,39,17.00
2008,08,17,03,40,17.00
2008,08,17,03,41,17.00
2008,08,17,03,42,16.90
2008,08,17,03,43,16.90
2008,08,17,03,44,16.90
2008,08,17,03,45,16.90
2008,08,17,03,46,16.80
2008,08,17,03,47,16.80
2008,08,17,03,48,16.80
2008,08,17,03,49,16.80
2008,08,17,03,50,16.70
2008,08,17,03,51,16.70
2008,08,17,03,52,16.70
2008,08,17,03,53,16.70
2008,08,17,03,54,16.70
2008,08,17,03,55,16.70
2008,08,17,03,56,16.70
2008,08,17,03,57,16.70
2008,08,17,03,58,16.70
2008,08,17,03,59,16.70
2008,08,17,04,00,16.70
2008,08,17,04,01,16.70
2008,08,17,04,02,16.70
2008,08,17,04,03,16.60
2008,08,17,04,04,16.60
2008,08,17,04,05,16.60
2008,08,17,04,06,16.60
2008,08,17,04,07,16.60
2008,08,17,04,08,16.60
2008,08,17,04,09,16.60
2008,08,17,04,10,16.60
2008,08,17,04,11,16.60
2008,08,17,04,12,16.60
2008,08,17,04,13,16.60
2008,08,17,04,14,16.60
2008,08,17,04,15,16.60
2008,08,17,04,16,16.60
2008,08,17,04,17,16.60
2008,08,17,04,18,16.60
2008,08,17,04,19,16.60
2008,08,17,04,20,16.60
2008,08,17,04,21,16.60
2008,08,17,04,22,16.60
2008,08,17,04,23,16.60
2008,08,17,04,24,16.60
2008,08,17,04,25,16.60
2008,08,17,04,26,16.60
2008,08,17,04,27,16.60
2008,08,17,04,28,16.60
2008,08,17,04,29,16.60
2008,08,17,04,30,16.60
2008,08,17,04,31,16.50
2008,08,17,04,32,16.40
2008,08,17,04,33,16.40
2008,08,17,04,34,16.40
2008,08,17,04,35,16.40
2008,08,17,04,36,16.40
2008,08,17,04,37,16.40
2008,08,17,04,38,16.40
2008,08,17,04,39,16.40
2008,08,17,04,40,16.40
2008,08,17,04,41,16.40
2008,08,17,04,42,16.40
2008,08,17,04,43,16.40
2008,08,17,04,44,16.40
2008,08,17,04,45,16.40
2008,08,17,04,46,16.40
2008,08,17,04,47,16.40
2008,08,17,04,48,16.40
2008,08,17,04,49,16.30
2008,08,17,04,50,16.30
2008,08,17,04,51,16.30
2008,08,17,04,52,16.30
2008,08,17,04,53,16.30
2008,08,17,04,54,16.30
2008,08,17,04,55,16.30
2008,08,17,04,56,16.30
2008,08,17,04,57,16.30
2008,08,17,04,58,16.20
2008,08,17,04,59,16.20
2008,08,17,05,00,16.20
2008,08,17,05,01,16.20
2008,08,17,05,02,16.20
2008,08,17,05,03,16.20
2008,08,17,05,04,16.20
2008,08,17,05,05,16.10
2008,08,17,05,06,16.10
2008,08,17,05,07,16.10
2008,08,17,05,08,16.10
2008,08,17,05,09,16.10
2008,08,17,05,10,16.10
2008,08,17,05,11,16.10
2008,08,17,05,12,16.10
2008,08,17,05,13,16.10
2008,08,17,05,14,16.10
2008,08,17,05,15,16.00
2008,08,17,05,16,15.90
2008,08,17,05,17,15.90
2008,08,17,05,18,15.90
2008,08,17,05,19,15.90
2008,08,17,05,20,15.90
2008,08,17,05,21,15.90
2008,08,17,05,22,15.90
2008,08,17,05,23,15.80
2008,08,17,05,24,15.80
2008,08,17,05,25,15.80
2008,08,17,05,26,15.80
2008,08,17,05,27,15.80
2008,08,17,05,28,15.80
2008,08,17,05,29,15.80
2008,08,17,05,30,15.80
2008,08,17,05,31,15.80
2008,08,17,05,32,15.80
2008,08,17,05,33,15.80
2008,08,17,05,34,15.80
2008,08,17,05,35,15.80
2008,08,17,05,36,15.80
2008,08,17,05,37,15.80
2008,08,17,05,38,15.80
2008,08,17,05,39,15.80
2008,08,17,05,40,15.70
2008,08,17,05,41,15.70
2008,08,17,05,42,15.70
2008,08,17,05,43,15.70
2008,08,17,05,44,15.70
2008,08,17,05,45,15.70
2008,08,17,05,46,15.70
2008,08,17,05,47,15.70
2008,08,17,05,48,15.70
2008,08,17,05,49,15.70
2008,08,17,05,50,15.70
2008,08,17,05,51,15.70
2008,08,17,05,52,15.70
2008,08,17,05,53,15.70
2008,08,17,05,54,15.70
2008,08,17,05,55,15.70
2008,08,17,05,56,15.70
2008,08,17,05,57,15.70
2008,08,17,05,58,15.70
2008,08,17,05,59,15.70
2008,08,17,06,00,15.70
2008,08,17,06,01,15.70
2008,08,17,06,02,15.70
2008,08,17,06,03,15.70
2008,08,17,06,04,15.60
2008,08,17,06,05,15.60
2008,08,17,06,06,15.60
2008,08,17,06,07,15.60
2008,08,17,06,08,15.60
2008,08,17,06,09,15.60
2008,08,17,06,10,15.60
2008,08,17,06,11,15.60
2008,08,17,06,12,15.60
2008,08,17,06,13,15.60
2008,08,17,06,14,15.60
2008,08,17,06,15,15.60
2008,08,17,06,16,15.60
2008,08,17,06,17,15.60
2008,08,17,06,18,15.60
2008,08,17,06,19,15.60
2008,08,17,06,20,15.60
2008,08,17,06,21,15.60
2008,08,17,06,22,15.60
2008,08,17,06,23,15.60
2008,08,17,06,24,15.60
2008,08,17,06,25,15.60
2008,08,17,06,26,15.70
2008,08,17,06,27,15.70
2008,08,17,06,28,15.70
2008,08,17,06,29,15.70
2008,08,17,06,30,15.70
2008,08,17,06,31,15.70
2008,08,17,06,32,15.70
2008,08,17,06,33,15.70
2008,08,17,06,34,15.70
2008,08,17,06,35,15.80
2008,08,17,06,36,15.80
2008,08,17,06,37,15.80
2008,08,17,06,38,15.80
2008,08,17,06,39,15.80
2008,08,17,06,40,15.80
2008,08,17,06,41,15.80
2008,08,17,06,42,15.80
2008,08,17,06,43,15.80
2008,08,17,06,44,15.80
2008,08,17,06,45,15.80
2008,08,17,06,46,15.80
2008,08,17,06,47,15.80
2008,08,17,06,48,15.80
2008,08,17,06,49,15.90
2008,08,17,06,50,15.90
2008,08,17,06,51,15.90
2008,08,17,06,52,15.90
2008,08,17,06,53,15.90
2008,08,17,06,54,15.90
2008,08,17,06,55,16.00
2008,08,17,06,56,16.10
2008,08,17,06,57,16.10
2008,08,17,06,58,16.10
2008,08,17,06,59,16.10
2008,08,17,07,00,16.10
2008,08,17,07,01,16.10
2008,08,17,07,02,16.10
2008,08,17,07,03,16.10
2008,08,17,07,04,16.10
2008,08,17,07,05,16.10
2008,08,17,07,06,16.20
2008,08,17,07,07,16.20
2008,08,17,07,08,16.20
2008,08,17,07,09,16.20
2008,08,17,07,10,16.20
2008,08,17,07,11,16.20
2008,08,17,07,12,16.20
2008,08,17,07,13,16.30
2008,08,17,07,14,16.30
2008,08,17,07,15,16.30
2008,08,17,07,16,16.30
2008,08,17,07,17,16.30
2008,08,17,07,18,16.30
2008,08,17,07,19,16.40
2008,08,17,07,20,16.40
2008,08,17,07,21,16.40
2008,08,17,07,22,16.40
2008,08,17,07,23,16.40
2008,08,17,07,24,16.40
2008,08,17,07,25,16.40
2008,08,17,07,26,16.40
2008,08,17,07,27,16.40
2008,08,17,07,28,16.40
2008,08,17,07,29,16.40
2008,08,17,07,30,16.40
2008,08,17,07,31,16.50
2008,08,17,07,32,16.60
2008,08,17,07,33,16.60
2008,08,17,07,34,16.60
2008,08,17,07,35,16.70
2008,08,17,07,36,16.70
2008,08,17,07,37,16.70
2008,08,17,07,38,16.70
2008,08,17,07,39,16.70
2008,08,17,07,40,16.80
2008,08,17,07,41,16.80
2008,08,17,07,42,16.90
2008,08,17,07,43,16.90
2008,08,17,07,44,17.00
2008,08,17,07,45,17.00
2008,08,17,07,46,17.00
2008,08,17,07,47,17.10
2008,08,17,07,48,17.10
2008,08,17,07,49,17.10
2008,08,17,07,50,17.20
2008,08,17,07,51,17.20
2008,08,17,07,52,17.20
2008,08,17,07,53,17.30
2008,08,17,07,54,17.30
2008,08,17,07,55,17.30
2008,08,17,07,56,17.30
2008,08,17,07,57,17.40
2008,08,17,07,58,17.40
2008,08,17,07,59,17.50
2008,08,17,08,00,17.50
2008,08,17,08,01,17.50
2008,08,17,08,02,17.60
2008,08,17,08,03,17.60
2008,08,17,08,04,17.70
2008,08,17,08,05,17.70
2008,08,17,08,06,17.80
2008,08,17,08,07,17.80
2008,08,17,08,08,17.80
2008,08,17,08,09,17.90
2008,08,17,08,10,17.90
2008,08,17,08,11,17.90
2008,08,17,08,12,18.00
2008,08,17,08,13,18.10
2008,08,17,08,14,18.10
2008,08,17,08,15,18.20
2008,08,17,08,16,18.20
2008,08,17,08,17,18.20
2008,08,17,08,18,18.20
2008,08,17,08,19,18.20
2008,08,17,08,20,18.20
2008,08,17,08,21,18.20
2008,08,17,08,22,18.20
2008,08,17,08,23,18.20
2008,08,17,08,24,18.20
2008,08,17,08,25,18.20
2008,08,17,08,26,18.20
2008,08,17,08,27,18.20
2008,08,17,08,28,18.20
2008,08,17,08,29,18.20
2008,08,17,08,30,18.30
2008,08,17,08,31,18.30
2008,08,17,08,32,18.30
2008,08,17,08,33,18.30
2008,08,17,08,34,18.30
2008,08,17,08,35,18.30
2008,08,17,08,36,18.30
2008,08,17,08,37,18.30
2008,08,17,08,38,18.30
2008,08,17,08,39,18.20
2008,08,17,08,40,18.20
2008,08,17,08,41,18.20
2008,08,17,08,42,18.20
2008,08,17,08,43,18.20
2008,08,17,08,44,18.20
2008,08,17,08,45,18.10
2008,08,17,08,46,18.10
2008,08,17,08,47,18.00
2008,08,17,08,48,17.90
2008,08,17,08,49,17.90
2008,08,17,08,50,17.90
2008,08,17,08,51,17.90
2008,08,17,08,52,17.90
2008,08,17,08,53,17.90
2008,08,17,08,54,17.90
2008,08,17,08,55,17.90
2008,08,17,08,56,17.90
2008,08,17,08,57,17.90
2008,08,17,08,58,17.90
2008,08,17,08,59,17.90
2008,08,17,09,00,17.90
2008,08,17,09,01,17.90
2008,08,17,09,02,17.90
2008,08,17,09,03,17.90
2008,08,17,09,04,17.90
2008,08,17,09,05,17.90
2008,08,17,09,06,17.90
2008,08,17,09,07,17.90
2008,08,17,09,08,17.90
2008,08,17,09,09,17.90
2008,08,17,09,10,17.90
2008,08,17,09,11,18.00
2008,08,17,09,12,18.10
2008,08,17,09,13,18.10
2008,08,17,09,14,18.10
2008,08,17,09,15,18.20
2008,08,17,09,16,18.20
2008,08,17,09,17,18.20
2008,08,17,09,18,18.30
2008,08,17,09,19,18.30
2008,08,17,09,20,18.40
2008,08,17,09,21,18.40
2008,08,17,09,22,18.50
2008,08,17,09,23,18.60
2008,08,17,09,24,18.60
2008,08,17,09,25,18.70
2008,08,17,09,26,18.70
2008,08,17,09,27,18.80
2008,08,17,09,28,18.90
2008,08,17,09,29,18.90
2008,08,17,09,30,19.00
2008,08,17,09,31,19.10
2008,08,17,09,32,19.10
2008,08,17,09,33,19.20
2008,08,17,09,34,19.30
2008,08,17,09,35,19.40
2008,08,17,09,36,19.50
2008,08,17,09,37,19.50
2008,08,17,09,38,19.60
2008,08,17,09,39,19.70
2008,08,17,09,40,19.80
2008,08,17,09,41,19.80
2008,08,17,09,42,19.90
2008,08,17,09,43,19.90
2008,08,17,09,44,20.00
2008,08,17,09,45,20.10
2008,08,17,09,46,20.20
2008,08,17,09,47,20.20
2008,08,17,09,48,20.20
2008,08,17,09,49,20.20
2008,08,17,09,50,20.30
2008,08,17,09,51,20.30
2008,08,17,09,52,20.40
2008,08,17,09,53,20.50
2008,08,17,09,54,20.50
2008,08,17,09,55,20.60
2008,08,17,09,56,20.70
2008,08,17,09,57,20.70
2008,08,17,09,58,20.80
2008,08,17,09,59,20.90
2008,08,17,10,00,21.00
2008,08,17,10,01,21.10
2008,08,17,10,02,21.10
2008,08,17,10,03,21.10
2008,08,17,10,04,21.10
2008,08,17,10,05,21.20
2008,08,17,10,06,21.20
2008,08,17,10,07,21.30
2008,08,17,10,08,21.30
2008,08,17,10,09,21.30
2008,08,17,10,10,21.40
2008,08,17,10,11,21.40
2008,08,17,10,12,21.40
2008,08,17,10,13,21.50
2008,08,17,10,14,21.60
2008,08,17,10,15,21.60
2008,08,17,10,16,21.60
2008,08,17,10,17,21.70
2008,08,17,10,18,21.80
2008,08,17,10,19,21.90
2008,08,17,10,20,22.00
2008,08,17,10,21,22.10
2008,08,17,10,22,22.10
2008,08,17,10,23,22.10
2008,08,17,10,24,22.20
2008,08,17,10,25,22.20
2008,08,17,10,26,22.30
2008,08,17,10,27,22.30
2008,08,17,10,28,22.40
2008,08,17,10,29,22.40
2008,08,17,10,30,22.50
2008,08,17,10,31,22.60
2008,08,17,10,32,22.70
2008,08,17,10,33,22.80
2008,08,17,10,34,22.90
2008,08,17,10,35,22.90
2008,08,17,10,36,22.90
2008,08,17,10,37,23.00
2008,08,17,10,38,23.10
2008,08,17,10,39,23.00
2008,08,17,10,40,22.90
2008,08,17,10,41,23.00
2008,08,17,10,42,23.10
2008,08,17,10,43,23.10
2008,08,17,10,44,23.00
2008,08,17,10,45,22.90
2008,08,17,10,46,22.90
2008,08,17,10,47,22.90
2008,08,17,10,48,22.90
2008,08,17,10,49,22.90
2008,08,17,10,50,22.90
2008,08,17,10,51,22.90
2008,08,17,10,52,22.80
2008,08,17,10,53,22.80
2008,08,17,10,54,22.80
2008,08,17,10,55,22.80
2008,08,17,10,56,22.70
2008,08,17,10,57,22.70
2008,08,17,10,58,22.70
2008,08,17,10,59,22.70
2008,08,17,11,00,22.70
2008,08,17,11,01,22.70
2008,08,17,11,02,22.60
2008,08,17,11,03,22.50
2008,08,17,11,04,22.40
2008,08,17,11,05,22.30
2008,08,17,11,06,22.30
2008,08,17,11,07,22.30
2008,08,17,11,08,22.30
2008,08,17,11,09,22.30
2008,08,17,11,10,22.30
2008,08,17,11,11,22.30
2008,08,17,11,12,22.20
2008,08,17,11,13,22.20
2008,08,17,11,14,22.10
2008,08,17,11,15,22.10
2008,08,17,11,16,22.10
2008,08,17,11,17,22.10
2008,08,17,11,18,22.00
2008,08,17,11,19,22.00
2008,08,17,11,20,22.00
2008,08,17,11,21,22.00
2008,08,17,11,22,21.90
2008,08,17,11,23,21.90
2008,08,17,11,24,21.90
2008,08,17,11,25,21.90
2008,08,17,11,26,21.80
2008,08,17,11,27,21.90
2008,08,17,11,28,21.90
2008,08,17,11,29,21.80
2008,08,17,11,30,21.80
2008,08,17,11,31,21.80
2008,08,17,11,32,21.80
2008,08,17,11,33,21.90
2008,08,17,11,34,21.90
2008,08,17,11,35,22.00
2008,08,17,11,36,22.00
2008,08,17,11,37,22.00
2008,08,17,11,38,22.00
2008,08,17,11,39,22.00
2008,08,17,11,40,21.90
2008,08,17,11,41,21.90
2008,08,17,11,42,21.80
2008,08,17,11,43,21.90
2008,08,17,11,44,21.90
2008,08,17,11,45,21.90
2008,08,17,11,46,22.00
2008,08,17,11,47,22.20
2008,08,17,11,48,22.20
2008,08,17,11,49,22.30
2008,08,17,11,50,22.30
2008,08,17,11,51,22.30
2008,08,17,11,52,22.30
2008,08,17,11,53,22.30
2008,08,17,11,54,22.40
2008,08,17,11,55,22.40
2008,08,17,11,56,22.40
2008,08,17,11,57,22.30
2008,08,17,11,58,22.20
2008,08,17,11,59,22.10
2008,08,17,12,00,22.00
2008,08,17,12,01,22.00
2008,08,17,12,02,22.00
2008,08,17,12,03,22.00
2008,08,17,12,04,22.10
2008,08,17,12,05,22.10
2008,08,17,12,06,22.20
2008,08,17,12,07,22.20
2008,08,17,12,08,22.20
2008,08,17,12,09,22.30
2008,08,17,12,10,22.30
2008,08,17,12,11,22.40
2008,08,17,12,12,22.50
2008,08,17,12,13,22.50
2008,08,17,12,14,22.60
2008,08,17,12,15,22.70
2008,08,17,12,16,22.70
2008,08,17,12,17,22.70
2008,08,17,12,18,22.70
2008,08,17,12,19,22.70
2008,08,17,12,20,22.80
2008,08,17,12,21,22.80
2008,08,17,12,22,22.90
2008,08,17,12,23,22.90
2008,08,17,12,24,22.90
2008,08,17,12,25,22.90
2008,08,17,12,26,23.10
2008,08,17,12,27,23.10
2008,08,17,12,28,23.30
2008,08,17,12,29,23.30
2008,08,17,12,30,23.50
2008,08,17,12,31,23.60
2008,08,17,12,32,23.70
2008,08,17,12,33,23.70
2008,08,17,12,34,23.80
2008,08,17,12,35,23.90
2008,08,17,12,36,24.00
2008,08,17,12,37,24.10
2008,08,17,12,38,24.10
2008,08,17,12,39,24.10
2008,08,17,12,40,24.10
2008,08,17,12,41,24.10
2008,08,17,12,42,24.10
2008,08,17,12,43,24.20
2008,08,17,12,44,24.20
2008,08,17,12,45,24.30
2008,08,17,12,46,24.40
2008,08,17,12,47,24.40
2008,08,17,12,48,24.50
2008,08,17,12,49,24.50
2008,08,17,12,50,24.50
2008,08,17,12,51,24.50
2008,08,17,12,52,24.40
2008,08,17,12,53,24.40
2008,08,17,12,54,24.50
2008,08,17,12,55,24.50
2008,08,17,12,56,24.60
2008,08,17,12,57,24.60
2008,08,17,12,58,24.60
2008,08,17,12,59,24.50
2008,08,17,13,00,24.50
2008,08,17,13,01,24.50
2008,08,17,13,02,24.50
2008,08,17,13,03,24.50
2008,08,17,13,04,24.50
2008,08,17,13,05,24.40
2008,08,17,13,06,24.30
2008,08,17,13,07,24.20
2008,08,17,13,08,24.20
2008,08,17,13,09,24.20
2008,08,17,13,10,24.20
2008,08,17,13,11,24.30
2008,08,17,13,12,24.20
2008,08,17,13,13,24.20
2008,08,17,13,14,24.20
2008,08,17,13,15,24.20
2008,08,17,13,16,24.30
2008,08,17,13,17,24.50
2008,08,17,13,18,24.50
2008,08,17,13,19,24.70
2008,08,17,13,20,24.70
2008,08,17,13,21,24.80
2008,08,17,13,22,24.80
2008,08,17,13,23,24.90
2008,08,17,13,24,24.90
2008,08,17,13,25,24.90
2008,08,17,13,26,24.90
2008,08,17,13,27,25.00
2008,08,17,13,28,25.10
2008,08,17,13,29,25.10
2008,08,17,13,30,25.20
2008,08,17,13,31,25.10
2008,08,17,13,32,25.00
2008,08,17,13,33,25.00
2008,08,17,13,34,24.90
2008,08,17,13,35,24.80
2008,08,17,13,36,24.80
2008,08,17,13,37,24.70
2008,08,17,13,38,24.70
2008,08,17,13,39,24.70
2008,08,17,13,40,24.70
2008,08,17,13,41,24.80
2008,08,17,13,42,24.90
2008,08,17,13,43,25.00
2008,08,17,13,44,25.10
2008,08,17,13,45,25.20
2008,08,17,13,46,25.30
2008,08,17,13,47,25.30
2008,08,17,13,48,25.30
2008,08,17,13,49,25.30
2008,08,17,13,50,25.20
2008,08,17,13,51,25.20
2008,08,17,13,52,25.30
2008,08,17,13,53,25.40
2008,08,17,13,54,25.40
2008,08,17,13,55,25.40
2008,08,17,13,56,25.50
2008,08,17,13,57,25.50
2008,08,17,13,58,25.50
2008,08,17,13,59,25.40
2008,08,17,14,00,25.40
2008,08,17,14,01,25.40
2008,08,17,14,02,25.40
2008,08,17,14,03,25.50
2008,08,17,14,04,25.60
2008,08,17,14,05,25.80
2008,08,17,14,06,25.80
2008,08,17,14,07,25.80
2008,08,17,14,08,25.70
2008,08,17,14,09,25.50
2008,08,17,14,10,25.40
2008,08,17,14,11,25.30
2008,08,17,14,12,25.30
2008,08,17,14,13,25.30
2008,08,17,14,14,25.20
2008,08,17,14,15,25.10
2008,08,17,14,16,25.10
2008,08,17,14,17,25.20
2008,08,17,14,18,25.40
2008,08,17,14,19,25.50
2008,08,17,14,20,25.60
2008,08,17,14,21,25.60
2008,08,17,14,22,25.80
2008,08,17,14,23,25.90
2008,08,17,14,24,26.00
2008,08,17,14,25,26.10
2008,08,17,14,26,26.20
2008,08,17,14,27,26.30
2008,08,17,14,28,26.50
2008,08,17,14,29,26.60
2008,08,17,14,30,26.60
2008,08,17,14,31,26.70
2008,08,17,14,32,26.80
2008,08,17,14,33,26.90
2008,08,17,14,34,26.90
2008,08,17,14,35,27.00
2008,08,17,14,36,27.10
2008,08,17,14,37,27.20
2008,08,17,14,38,27.20
2008,08,17,14,39,27.20
2008,08,17,14,40,27.20
2008,08,17,14,41,27.20
2008,08,17,14,42,27.20
2008,08,17,14,43,27.10
2008,08,17,14,44,26.90
2008,08,17,14,45,26.80
2008,08,17,14,46,26.60
2008,08,17,14,47,26.40
2008,08,17,14,48,26.30
2008,08,17,14,49,26.20
2008,08,17,14,50,26.00
2008,08,17,14,51,26.00
2008,08,17,14,52,26.00
2008,08,17,14,53,26.00
2008,08,17,14,54,26.00
2008,08,17,14,55,26.00
2008,08,17,14,56,25.90
2008,08,17,14,57,25.90
2008,08,17,14,58,25.90
2008,08,17,14,59,26.00
2008,08,17,15,00,26.00
2008,08,17,15,01,26.10
2008,08,17,15,02,26.00
2008,08,17,15,03,25.90
2008,08,17,15,04,25.90
2008,08,17,15,05,25.90
2008,08,17,15,06,25.90
2008,08,17,15,07,26.00
2008,08,17,15,08,26.00
2008,08,17,15,09,26.20
2008,08,17,15,10,26.30
2008,08,17,15,11,26.30
2008,08,17,15,12,26.40
2008,08,17,15,13,26.50
2008,08,17,15,14,26.60
2008,08,17,15,15,26.60
2008,08,17,15,16,26.70
2008,08,17,15,17,26.70
2008,08,17,15,18,26.70
2008,08,17,15,19,26.80
2008,08,17,15,20,26.80
2008,08,17,15,21,26.80
2008,08,17,15,22,26.90
2008,08,17,15,23,26.90
2008,08,17,15,24,26.90
2008,08,17,15,25,27.10
2008,08,17,15,26,27.10
2008,08,17,15,27,27.10
2008,08,17,15,28,27.10
2008,08,17,15,29,27.10
2008,08,17,15,30,27.20
2008,08,17,15,31,27.20
2008,08,17,15,32,27.20
2008,08,17,15,33,27.30
2008,08,17,15,34,27.30
2008,08,17,15,35,27.30
2008,08,17,15,36,27.30
2008,08,17,15,37,27.40
2008,08,17,15,38,27.40
2008,08,17,15,39,27.30
2008,08,17,15,40,27.30
2008,08,17,15,41,27.40
2008,08,17,15,42,27.40
2008,08,17,15,43,27.50
2008,08,17,15,44,27.70
2008,08,17,15,45,27.80
2008,08,17,15,46,27.90
2008,08,17,15,47,28.00
2008,08,17,15,48,28.00
2008,08,17,15,49,28.00
2008,08,17,15,50,28.10
2008,08,17,15,51,28.10
2008,08,17,15,52,28.10
2008,08,17,15,53,28.00
2008,08,17,15,54,27.90
2008,08,17,15,55,27.80
2008,08,17,15,56,27.60
2008,08,17,15,57,27.60
2008,08,17,15,58,27.50
2008,08,17,15,59,27.30
2008,08,17,16,00,27.30
2008,08,17,16,01,27.20
2008,08,17,16,02,27.10
2008,08,17,16,03,27.10
2008,08,17,16,04,27.10
2008,08,17,16,05,27.10
2008,08,17,16,06,27.20
2008,08,17,16,07,27.30
2008,08,17,16,08,27.30
2008,08,17,16,09,27.40
2008,08,17,16,10,27.60
2008,08,17,16,11,27.60
2008,08,17,16,12,27.60
2008,08,17,16,13,27.60
2008,08,17,16,14,27.70
2008,08,17,16,15,27.70
2008,08,17,16,16,27.70
2008,08,17,16,17,27.70
2008,08,17,16,18,27.80
2008,08,17,16,19,27.80
2008,08,17,16,20,27.80
2008,08,17,16,21,27.80
2008,08,17,16,22,27.80
2008,08,17,16,23,27.80
2008,08,17,16,24,27.80
2008,08,17,16,25,27.70
2008,08,17,16,26,27.60
2008,08,17,16,27,27.50
2008,08,17,16,28,27.40
2008,08,17,16,29,27.50
2008,08,17,16,30,27.50
2008,08,17,16,31,27.50
2008,08,17,16,32,27.60
2008,08,17,16,33,27.40
2008,08,17,16,34,27.50
2008,08,17,16,35,27.60
2008,08,17,16,36,27.50
2008,08,17,16,37,27.40
2008,08,17,16,38,27.30
2008,08,17,16,39,27.30
2008,08,17,16,40,27.30
2008,08,17,16,41,27.30
2008,08,17,16,42,27.30
2008,08,17,16,43,27.30
2008,08,17,16,44,27.30
2008,08,17,16,45,27.10
2008,08,17,16,46,27.00
2008,08,17,16,47,26.80
2008,08,17,16,48,26.70
2008,08,17,16,49,26.60
2008,08,17,16,50,26.60
2008,08,17,16,51,26.60
2008,08,17,16,52,26.60
2008,08,17,16,53,26.60
2008,08,17,16,54,26.60
2008,08,17,16,55,26.70
2008,08,17,16,56,26.70
2008,08,17,16,57,26.70
2008,08,17,16,58,26.80
2008,08,17,16,59,26.80
2008,08,17,17,00,26.90
2008,08,17,17,01,26.90
2008,08,17,17,02,27.00
2008,08,17,17,03,27.10
2008,08,17,17,04,27.10
2008,08,17,17,05,27.20
2008,08,17,17,06,27.20
2008,08,17,17,07,27.20
2008,08,17,17,08,27.30
2008,08,17,17,09,27.30
2008,08,17,17,10,27.30
2008,08,17,17,11,27.20
2008,08,17,17,12,27.20
2008,08,17,17,13,27.10
2008,08,17,17,14,27.00
2008,08,17,17,15,26.90
2008,08,17,17,16,26.70
2008,08,17,17,17,26.60
2008,08,17,17,18,26.60
2008,08,17,17,19,26.50
2008,08,17,17,20,26.40
2008,08,17,17,21,26.40
2008,08,17,17,22,26.40
2008,08,17,17,23,26.30
2008,08,17,17,24,26.30
2008,08,17,17,25,26.20
2008,08,17,17,26,26.20
2008,08,17,17,27,26.10
2008,08,17,17,28,26.10
2008,08,17,17,29,25.90
2008,08,17,17,30,25.80
2008,08,17,17,31,25.70
2008,08,17,17,32,25.60
2008,08,17,17,33,25.50
2008,08,17,17,34,25.50
2008,08,17,17,35,25.50
2008,08,17,17,36,25.40
2008,08,17,17,37,25.40
2008,08,17,17,38,25.40
2008,08,17,17,39,25.30
2008,08,17,17,40,25.20
2008,08,17,17,41,25.10
2008,08,17,17,42,25.10
2008,08,17,17,43,25.00
2008,08,17,17,44,25.00
2008,08,17,17,45,25.00
2008,08,17,17,46,25.00
2008,08,17,17,47,25.00
2008,08,17,17,48,25.00
2008,08,17,17,49,25.00
2008,08,17,17,50,25.10
2008,08,17,17,51,25.10
2008,08,17,17,52,25.10
2008,08,17,17,53,25.10
2008,08,17,17,54,25.10
2008,08,17,17,55,25.10
2008,08,17,17,56,25.00
2008,08,17,17,57,25.00
2008,08,17,17,58,24.90
2008,08,17,17,59,24.90
2008,08,17,18,00,24.90
2008,08,17,18,01,24.80
2008,08,17,18,02,24.80
2008,08,17,18,03,24.80
2008,08,17,18,04,24.80
2008,08,17,18,05,24.80
2008,08,17,18,06,24.70
2008,08,17,18,07,24.70
2008,08,17,18,08,24.70